< < Back
Terminal Aerodrome Forecast


Current Version              Previous Versions:   1  2  3  4  5  6  7  8  9  

Terminal Aerodrome Forecast

418
FTUS42 KTAE 261120
TAFDHN
TAF
KDHN 261120Z 2612/2712 24008KT P6SM SKC
     FM261600 27011G16KT P6SM SCT040
     FM270000 29006KT P6SM SCT250=



Latest METAR

046
SAUS70 KWBC 271300 RRG
MTRDHN
METAR KDHN 271253Z 04005KT 10SM CLR 17/14 A2986 RMK AO2 SLP109
T01720144


USA.gov is the U.S. government's official web portal to all federal, state and local government web resources and services.